TimeCST,TemperatureF,Dew PointF,Humidity,Sea Level PressureIn,VisibilityMPH,Wind Direction,Wind SpeedMPH,Gust SpeedMPH,PrecipitationIn,Events,Conditions,WindDirDegrees,DateUTC
12:53 AM,12.0,9.0,88,30.09,10.0,SSE,3.5,-,N/A,,Clear,150,2013-01-05 06:53:00
1:53 AM,8.1,5.0,87,30.07,10.0,SSW,3.5,-,N/A,,Clear,200,2013-01-05 07:53:00
2:53 AM,10.9,9.0,92,30.07,8.0,Calm,Calm,-,N/A,,Clear,0,2013-01-05 08:53:00
3:53 AM,7.0,5.0,92,30.06,9.0,Calm,Calm,-,N/A,,Clear,0,2013-01-05 09:53:00
4:53 AM,8.6,6.8,92,29.97,8.0,Calm,Calm,-,N/A,,Clear,0,2013-01-05 10:53:00
5:53 AM,8.1,5.0,87,30.07,10.0,WNW,3.5,-,N/A,,Clear,290,2013-01-05 11:53:00
6:53 AM,8.1,5.0,87,30.11,10.0,NW,8.1,-,N/A,,Clear,320,2013-01-05 12:53:00
7:53 AM,7.0,3.9,87,30.13,10.0,NNW,5.8,-,N/A,,Clear,330,2013-01-05 13:53:00
8:53 AM,10.9,7.0,84,30.14,10.0,NW,3.5,-,N/A,,Clear,310,2013-01-05 14:53:00
9:53 AM,19.0,12.9,77,30.15,10.0,NNW,6.9,-,N/A,,Clear,330,2013-01-05 15:53:00
10:53 AM,30.0,19.0,64,30.14,10.0,NW,17.3,-,0.00,,Clear,320,2013-01-05 16:53:00
11:53 AM,37.0,23.0,57,30.12,10.0,NW,19.6,25.3,N/A,,Clear,320,2013-01-05 17:53:00
12:53 PM,42.1,25.0,51,30.10,10.0,NW,18.4,25.3,N/A,,Clear,320,2013-01-05 18:53:00
1:53 PM,42.1,24.1,49,30.10,10.0,NW,23.0,31.1,N/A,,Clear,310,2013-01-05 19:53:00
2:53 PM,42.1,23.0,47,30.09,10.0,NW,26.5,35.7,N/A,,Clear,310,2013-01-05 20:53:00
3:53 PM,41.0,21.9,47,30.13,10.0,NW,21.9,29.9,N/A,,Clear,310,2013-01-05 21:53:00
4:53 PM,37.9,16.0,41,30.16,10.0,NW,25.3,39.1,N/A,,Clear,320,2013-01-05 22:53:00
5:53 PM,34.0,18.0,52,30.20,10.0,NW,19.6,-,N/A,,Clear,310,2013-01-05 23:53:00
6:53 PM,32.0,19.0,59,30.25,10.0,NW,13.8,-,N/A,,Clear,310,2013-01-06 00:53:00
7:53 PM,30.0,16.0,56,30.27,10.0,NW,23.0,27.6,N/A,,Clear,320,2013-01-06 01:53:00
8:53 PM,28.0,16.0,61,30.29,10.0,NW,17.3,25.3,N/A,,Clear,310,2013-01-06 02:53:00
9:53 PM,25.0,16.0,69,30.30,10.0,NW,11.5,-,N/A,,Clear,320,2013-01-06 03:53:00
10:53 PM,21.9,15.1,75,30.30,10.0,NW,8.1,-,N/A,,Clear,320,2013-01-06 04:53:00
11:53 PM,19.0,12.9,77,30.30,10.0,NW,8.1,-,N/A,,Clear,320,2013-01-06 05:53:00